{"data":{"norad_id":62676,"epoch":"2026-05-24T22:52:03.156384Z","epoch_age_seconds":72314,"freshness":"FRESH","line1":"1 62676U 25009BV  26144.95281431  .00002441  00000+0  11313-3 0  9995","line2":"2 62676  97.3959 223.6465 0006689  69.1018 291.0933 15.21009158 75161","mean_motion":15.21009158,"eccentricity":0.0006689,"inclination_deg":97.3959,"raan_deg":223.6465,"arg_perigee_deg":69.1018,"mean_anomaly_deg":291.0933,"bstar":0.00011313,"rev_number":7516,"period_min":94.673986177275,"perigee_km":498.19270379118,"apogee_km":507.39801510165,"semimajor_km":6880.9323594464,"source":"CELESTRAK","updated_at":"2026-05-25T13:38:03.166886Z"}}